Volver al catálogo

STARLINK-31489

ActivoComunicacionesVLEO
NORAD 59300·PAYLOAD·🇺🇸 United States

Lanzado Mar 24, 2024 desde Cape Canaveral Space Force Station

Loading…

Próximos Pases (próximas 24 horas)

TLE

ActualizadoSource: CelesTrak SupGP

Época: Sep 14, 2026, 22:23 UTC

1 59300C 24056E   26257.93312500  .00028743  00000+0  10411-2 0  2578
2 59300  43.0009 241.7403 0001437 263.6577 298.9517 15.27563643    11

Sigue STARLINK-31489 en tiempo real con AllMySat

Download on the App Store